Preview of NWS' New Version of Forecast
This preview is not operational and should not be used for support decisions.

Regional Weather Roundup (RWR)

Issued by National Weather Service (NWS)

                            
000
ASPQ40 PGUM 251010
RWRPQ 
WEATHER ROUNDUP FOR THE MARIANAS AND MICRONESIA
NATIONAL WEATHER SERVICE TIYAN GU
800 PM CHST SUN AUG 25 2019

GUZ001>004-251100-
MARIANA ISLANDS-
  
CITY           SKY/WX    TMP DP  RH WIND       PRES   REMARKS
GUAM AIRPORT   CLEAR     82  75  78 SE6       29.82R                  
ANDERSEN AFB   MOCLDY    81  75  83 S8        29.83R                  
ROTA AIRPORT   PTCLDY    81  73  78 SE12      29.79S                  
TINIAN AP      PTCLDY    82  77  83 CALM      29.83R HX  91           
SAIPAN AP      CLEAR     82  77  83 E8        29.84R HX  91           

$$

PMZ161-251100-
REPUBLIC OF PALAU-
  
CITY           SKY/WX    TMP DP  RH WIND       PRES   REMARKS
KOROR AP       CLOUDY    81  73  78 W12       29.74S                  
KOROR WSO      NOT AVBL                                               

$$

PMZ171>174-251100-
FEDERATED STATES OF MICRONESIA-
  
CITY           SKY/WX    TMP DP  RH WIND       PRES   REMARKS
YAP AIRPORT    CLOUDY    79  77  94 SW8       29.74R                  
CHUUK AP       LGT RAIN  79  77  94 SW10      29.87                   
POHNPEI AP     NOT AVBL                                               
POHNPEI WSO    MOCLDY    82  77  83 E2        29.88R HX  91           
KOSRAE AP      NOT AVBL                                               

$$

PMZ181-251100-
REPUBLIC OF THE MARSHALL ISLANDS-
  
CITY           SKY/WX    TMP DP  RH WIND       PRES   REMARKS
KWAJALEIN AP   PTCLDY    84  77  79 E10       29.86R HX  94           
MAJURO AP      NOT AVBL                                               
MAJURO WSO     MOCLDY    84  75  74 E6        29.83S HX  92           

$$